DAOC weather

Ouakda Airport
Béchar, Béchar Province, Algeria

Public forecast

Using degrees Celsius for public forecast. Weather courtesy of forecast.io.

METAR (pilot weather report)

Closest report is Béchar Boudghene Ben Ali Lotfi Airport, 4.4 nm (8.1 km) W. Retrieved 2019/09/19 10:00 UTC (6 minutes ago):

DAOR 191000Z 18010KT CAVOK 33/M01 Q1020

TAF (pilot weather forecast)

Forecast is more than 12 hours old.

Closest forecast is Béchar Boudghene Ben Ali Lotfi Airport, 4.4 nm (8.1 km) W. Retrieved 2017/11/09 18:03 UTC (2 years ago):

TAF DAOR 091700Z 0918/1009 35010KT 6000 FEW033 SCT100 TEMPO 0918/0924 3000 BLSA PROB40 TEMPO 0918/0924 35020G35KT 2000 -TSRA FEW030CB